QPF
0.00 0.00 0.00 0.00 0.00 0.00 0.00 0.00 0.00 0.00 0.00 0.00 0.00 0.00 0.01 0.01 0.01 0.03 0.04 0.02 0.03 0.06 0.05 0.04 0.03 0.04 0.04 0.03 0.03 0.06 0.09 0.10 0.14 0.15 0.12 0.14 0.18 0.19 0.22 0.22 0.10 0.05 0.05 0.05
0.00 0.00 0.00 0.00 0.00 0.00 0.00 0.00 0.00 0.00 0.00 0.00 0.00 0.01 0.02 0.02 0.02 0.03 0.04 0.04 0.07 0.11 0.08 0.06 0.03 0.03 0.03 0.03 0.04 0.08 0.12 0.14 0.15 0.14 0.11 0.10 0.13 0.18 0.20 0.19 0.12 0.06 0.05 0.05
0.00 0.00 0.00 0.00 0.00 0.00 0.00 0.00 0.00 0.00 0.00 0.00 0.00 0.00 0.01 0.01 0.03 0.03 0.02 0.03 0.06 0.08 0.13 0.08 0.04 0.03 0.04 0.04 0.05 0.08 0.14 0.17 0.18 0.16 0.14 0.13 0.13 0.16 0.20 0.21 0.13 0.07 0.06 0.05
0.00 0.00 0.00 0.00 0.00 0.00 0.00 0.00 0.00 0.00 0.00 0.00 0.00 0.00 0.01 0.01 0.03 0.06 0.03 0.04 0.05 0.04 0.07 0.11 0.06 0.02 0.04 0.05 0.05 0.06 0.12 0.18 0.22 0.20 0.16 0.12 0.09 0.09 0.11 0.11 0.11 0.08 0.06 0.05
0.00 0.00 0.00 0.00 0.00 0.00 0.00 0.00 0.00 0.00 0.00 0.00 0.00 0.00 0.01 0.01 0.05 0.07 0.03 0.04 0.05 0.04 0.04 0.04 0.03 0.03 0.03 0.04 0.03 0.05 0.10 0.13 0.17 0.17 0.18 0.19 0.12 0.11 0.11 0.10 0.11 0.09 0.07 0.06
0.00 0.00 0.00 0.00 0.00 0.00 0.00 0.00 0.00 0.00 0.00 0.00 0.00 0.00 0.01 0.01 0.02 0.04 0.03 0.04 0.05 0.04 0.04 0.05 0.06 0.04 0.03 0.02 0.03 0.03 0.07 0.09 0.11 0.13 0.16 0.18 0.15 0.13 0.13 0.10 0.08 0.07 0.06 0.05
0.00 0.00 0.00 0.00 0.00 0.00 0.00 0.00 0.00 0.00 0.00 0.00 0.00 0.00 0.01 0.03 0.05 0.03 0.02 0.02 0.03 0.03 0.05 0.11 0.14 0.07 0.04 0.02 0.03 0.03 0.05 0.06 0.09 0.10 0.15 0.15 0.14 0.13 0.11 0.09 0.08 0.07 0.05 0.04
0.00 0.00 0.00 0.00 0.00 0.00 0.00 0.00 0.00 0.00 0.00 0.00 0.00 0.00 0.01 0.06 0.04 0.03 0.03 0.04 0.04 0.04 0.04 0.08 0.15 0.11 0.04 0.03 0.04 0.04 0.05 0.04 0.05 0.08 0.13 0.13 0.12 0.11 0.10 0.10 0.09 0.08 0.05 0.05
0.00 0.00 0.00 0.00 0.00 0.00 0.00 0.00 0.00 0.00 0.00 0.00 0.01 0.01 0.01 0.02 0.03 0.05 0.03 0.03 0.04 0.04 0.07 0.08 0.10 0.07 0.03 0.04 0.04 0.03 0.04 0.04 0.04 0.06 0.09 0.10 0.10 0.08 0.08 0.08 0.07 0.06 0.05 0.05
0.00 0.00 0.00 0.00 0.00 0.00 0.00 0.00 0.00 0.00 0.00 0.00 0.01 0.01 0.02 0.02 0.03 0.02 0.04 0.04 0.04 0.06 0.11 0.11 0.06 0.06 0.06 0.04 0.04 0.05 0.04 0.04 0.04 0.06 0.08 0.09 0.09 0.08 0.07 0.06 0.05 0.05 0.06 0.07
0.00 0.00 0.00 0.00 0.00 0.00 0.00 0.00 0.00 0.00 0.00 0.00 0.01 0.02 0.02 0.02 0.02 0.03 0.04 0.04 0.04 0.05 0.10 0.08 0.05 0.04 0.04 0.04 0.03 0.03 0.03 0.03 0.04 0.07 0.08 0.08 0.09 0.08 0.07 0.06 0.06 0.07 0.07 0.08
0.00 0.00 0.00 0.00 0.00 0.00 0.00 0.00 0.00 0.00 0.00 0.00 0.00 0.00 0.01 0.02 0.03 0.02 0.05 0.06 0.05 0.05 0.04 0.04 0.04 0.05 0.03 0.02 0.01 0.01 0.02 0.03 0.05 0.08 0.08 0.08 0.10 0.07 0.06 0.06 0.07 0.07 0.08 0.08
0.00 0.00 0.00 0.00 0.00 0.00 0.00 0.00 0.00 0.00 0.00 0.00 0.00 0.00 0.01 0.01 0.02 0.03 0.05 0.08 0.09 0.07 0.05 0.04 0.06 0.06 0.04 0.03 0.02 0.02 0.02 0.02 0.02 0.04 0.05 0.05 0.06 0.04 0.04 0.05 0.07 0.08 0.10 0.11
0.00 0.00 0.00 0.00 0.00 0.00 0.00 0.00 0.00 0.00 0.00 0.00 0.00 0.00 0.01 0.01 0.03 0.06 0.06 0.06 0.06 0.06 0.04 0.05 0.12 0.12 0.06 0.03 0.03 0.03 0.02 0.02 0.02 0.02 0.02 0.03 0.04 0.04 0.04 0.05 0.06 0.07 0.09 0.10
0.00 0.00 0.00 0.00 0.00 0.00 0.00 0.00 0.00 0.00 0.00 0.00 0.00 0.00 0.00 0.02 0.03 0.03 0.05 0.07 0.08 0.04 0.04 0.04 0.06 0.09 0.05 0.04 0.03 0.02 0.02 0.02 0.02 0.02 0.02 0.03 0.02 0.03 0.04 0.05 0.05 0.06 0.07 0.08
0.00 0.00 0.00 0.00 0.00 0.00 0.00 0.00 0.00 0.00 0.00 0.00 0.00 0.00 0.00 0.00 0.01 0.03 0.06 0.06 0.06 0.04 0.04 0.04 0.03 0.03 0.03 0.03 0.02 0.02 0.02 0.02 0.01 0.02 0.02 0.03 0.03 0.03 0.04 0.04 0.05 0.06 0.07 0.08
0.00 0.00 0.00 0.00 0.00 0.00 0.00 0.00 0.00 0.00 0.00 0.00 0.00 0.00 0.00 0.02 0.03 0.07 0.10 0.07 0.07 0.05 0.04 0.04 0.04 0.04 0.04 0.03 0.02 0.02 0.02 0.03 0.03 0.02 0.02 0.04 0.03 0.03 0.03 0.05 0.06 0.07 0.07 0.07
0.00 0.00 0.00 0.00 0.00 0.00 0.00 0.00 0.00 0.00 0.00 0.00 0.00 0.00 0.01 0.04 0.05 0.06 0.10 0.11 0.11 0.09 0.11 0.07 0.05 0.04 0.03 0.02 0.02 0.02 0.02 0.03 0.03 0.03 0.04 0.04 0.04 0.03 0.03 0.04 0.07 0.09 0.08 0.06
0.00 0.00 0.00 0.00 0.00 0.00 0.00 0.00 0.00 0.00 0.00 0.00 0.00 0.00 0.01 0.02 0.02 0.04 0.04 0.08 0.09 0.07 0.09 0.09 0.08 0.05 0.04 0.04 0.04 0.03 0.02 0.02 0.03 0.04 0.04 0.03 0.04 0.04 0.04 0.03 0.05 0.07 0.09 0.09
0.00 0.00 0.00 0.00 0.00 0.00 0.00 0.00 0.01 0.01 0.02 0.01 0.01 0.01 0.01 0.04 0.04 0.04 0.05 0.07 0.07 0.08 0.10 0.08 0.06 0.05 0.05 0.04 0.04 0.03 0.03 0.04 0.04 0.04 0.04 0.05 0.05 0.05 0.05 0.05 0.04 0.06 0.08 0.10
0.00 0.00 0.00 0.00 0.00 0.00 0.00 0.00 0.01 0.02 0.03 0.02 0.01 0.02 0.01 0.02 0.03 0.03 0.04 0.06 0.08 0.13 0.13 0.09 0.07 0.06 0.06 0.05 0.04 0.03 0.03 0.03 0.03 0.03 0.03 0.04 0.05 0.05 0.05 0.05 0.06 0.06 0.07 0.08
0.00 0.00 0.00 0.00 0.00 0.01 0.00 0.00 0.01 0.02 0.02 0.03 0.02 0.03 0.02 0.02 0.04 0.05 0.04 0.05 0.07 0.07 0.08 0.11 0.11 0.09 0.06 0.04 0.03 0.03 0.02 0.03 0.03 0.04 0.04 0.05 0.06 0.07 0.07 0.06 0.05 0.04 0.04 0.05
0.00 0.00 0.00 0.01 0.01 0.01 0.01 0.01 0.01 0.02 0.02 0.03 0.03 0.03 0.02 0.02 0.02 0.05 0.05 0.05 0.07 0.06 0.07 0.08 0.10 0.09 0.06 0.04 0.03 0.03 0.02 0.02 0.02 0.03 0.04 0.05 0.07 0.07 0.08 0.08 0.07 0.06 0.05 0.06
0.02 0.01 0.02 0.04 0.06 0.03 0.02 0.03 0.04 0.04 0.03 0.03 0.02 0.02 0.03 0.03 0.04 0.05 0.07 0.08 0.11 0.11 0.10 0.09 0.09 0.07 0.05 0.04 0.04 0.04 0.03 0.01 0.01 0.02 0.03 0.04 0.05 0.04 0.05 0.05 0.05 0.05 0.05 0.06
0.02 0.03 0.04 0.07 0.08 0.07 0.05 0.04 0.04 0.05 0.05 0.04 0.03 0.02 0.02 0.03 0.04 0.07 0.13 0.17 0.13 0.09 0.08 0.08 0.07 0.06 0.05 0.05 0.04 0.04 0.03 0.02 0.02 0.02 0.02 0.02 0.03 0.03 0.04 0.03 0.03 0.04 0.04 0.06
0.03 0.04 0.06 0.08 0.09 0.09 0.08 0.06 0.05 0.07 0.09 0.08 0.05 0.04 0.03 0.04 0.04 0.05 0.10 0.16 0.15 0.12 0.09 0.06 0.05 0.05 0.06 0.06 0.05 0.04 0.04 0.03 0.02 0.02 0.02 0.03 0.03 0.04 0.04 0.03 0.03 0.04 0.04 0.05
MSLP
1012.29 1013.04 1013.59 1013.90 1013.98 1013.88 1013.63 1013.29 1012.89 1012.44 1011.97 1011.47 1010.97 1010.48 1010.03 1009.66 1009.40 1009.27 1009.30 1009.46 1009.73 1010.07 1010.42 1010.76 1011.04 1011.27 1011.46 1011.63 1011.84 1012.10 1012.46 1012.90 1013.41 1013.96 1014.51 1015.00 1015.40 1015.71 1015.92 1016.06 1016.17 1016.30 1016.47 1016.71
1012.83 1013.35 1013.64 1013.74 1013.70 1013.57 1013.41 1013.24 1013.06 1012.85 1012.58 1012.22 1011.76 1011.22 1010.65 1010.11 1009.67 1009.39 1009.32 1009.44 1009.74 1010.14 1010.58 1010.99 1011.33 1011.56 1011.71 1011.83 1011.95 1012.15 1012.47 1012.91 1013.46 1014.07 1014.68 1015.23 1015.66 1015.95 1016.11 1016.18 1016.19 1016.22 1016.31 1016.50
1013.11 1013.36 1013.40 1013.31 1013.17 1013.07 1013.03 1013.09 1013.19 1013.25 1013.22 1013.02 1012.61 1012.03 1011.33 1010.61 1009.97 1009.52 1009.32 1009.39 1009.68 1010.14 1010.66 1011.15 1011.54 1011.80 1011.94 1012.01 1012.08 1012.23 1012.50 1012.93 1013.50 1014.15 1014.81 1015.41 1015.87 1016.17 1016.30 1016.31 1016.25 1016.20 1016.22 1016.35
1013.11 1013.11 1012.94 1012.70 1012.52 1012.48 1012.64 1012.95 1013.36 1013.73 1013.94 1013.90 1013.55 1012.92 1012.08 1011.16 1010.31 1009.66 1009.30 1009.27 1009.54 1010.02 1010.61 1011.18 1011.64 1011.95 1012.10 1012.15 1012.18 1012.27 1012.51 1012.91 1013.48 1014.14 1014.84 1015.47 1015.97 1016.28 1016.41 1016.40 1016.31 1016.21 1016.18 1016.27
1012.91 1012.70 1012.36 1012.04 1011.87 1011.96 1012.33 1012.93 1013.65 1014.31 1014.75 1014.86 1014.55 1013.86 1012.87 1011.74 1010.65 1009.79 1009.26 1009.11 1009.33 1009.82 1010.45 1011.10 1011.63 1012.00 1012.18 1012.23 1012.24 1012.29 1012.48 1012.84 1013.37 1014.03 1014.73 1015.38 1015.90 1016.24 1016.40 1016.39 1016.30 1016.19 1016.14 1016.20
1012.59 1012.22 1011.78 1011.44 1011.34 1011.59 1012.19 1013.07 1014.07 1014.98 1015.62 1015.83 1015.55 1014.78 1013.63 1012.30 1010.99 1009.91 1009.20 1008.93 1009.08 1009.56 1010.24 1010.95 1011.55 1011.98 1012.21 1012.28 1012.28 1012.29 1012.42 1012.72 1013.20 1013.82 1014.49 1015.14 1015.67 1016.04 1016.23 1016.26 1016.20 1016.11 1016.07 1016.12
1012.20 1011.74 1011.27 1010.96 1010.98 1011.40 1012.22 1013.33 1014.56 1015.67 1016.44 1016.73 1016.43 1015.58 1014.31 1012.80 1011.30 1010.04 1009.17 1008.78 1008.86 1009.33 1010.02 1010.79 1011.46 1011.96 1012.24 1012.33 1012.32 1012.30 1012.38 1012.60 1013.00 1013.55 1014.17 1014.78 1015.31 1015.70 1015.92 1016.00 1015.99 1015.94 1015.93 1016.00
1011.80 1011.31 1010.87 1010.65 1010.79 1011.38 1012.37 1013.65 1015.03 1016.25 1017.09 1017.40 1017.08 1016.17 1014.79 1013.17 1011.54 1010.16 1009.18 1008.71 1008.74 1009.18 1009.89 1010.68 1011.41 1011.96 1012.28 1012.41 1012.40 1012.35 1012.36 1012.51 1012.82 1013.27 1013.82 1014.38 1014.88 1015.27 1015.53 1015.65 1015.69 1015.69 1015.72 1015.81
1011.40 1010.94 1010.57 1010.46 1010.74 1011.44 1012.54 1013.91 1015.34 1016.59 1017.43 1017.72 1017.38 1016.43 1015.02 1013.36 1011.70 1010.27 1009.25 1008.74 1008.74 1009.16 1009.86 1010.67 1011.42 1012.00 1012.36 1012.51 1012.50 1012.43 1012.40 1012.47 1012.69 1013.05 1013.50 1013.99 1014.45 1014.83 1015.09 1015.24 1015.33 1015.38 1015.44 1015.56
1010.98 1010.61 1010.35 1010.36 1010.74 1011.51 1012.64 1014.00 1015.38 1016.57 1017.36 1017.61 1017.25 1016.31 1014.94 1013.34 1011.73 1010.36 1009.38 1008.88 1008.87 1009.27 1009.95 1010.74 1011.48 1012.07 1012.44 1012.60 1012.60 1012.53 1012.46 1012.48 1012.62 1012.89 1013.26 1013.67 1014.07 1014.41 1014.67 1014.84 1014.94 1015.02 1015.11 1015.25
1010.53 1010.29 1010.17 1010.29 1010.74 1011.52 1012.60 1013.85 1015.10 1016.15 1016.83 1017.02 1016.66 1015.79 1014.54 1013.08 1011.64 1010.41 1009.54 1009.11 1009.11 1009.50 1010.13 1010.86 1011.56 1012.11 1012.47 1012.64 1012.65 1012.58 1012.51 1012.51 1012.60 1012.81 1013.10 1013.44 1013.78 1014.07 1014.30 1014.46 1014.57 1014.66 1014.76 1014.89
1010.06 1009.98 1010.00 1010.23 1010.70 1011.43 1012.39 1013.45 1014.50 1015.36 1015.89 1016.01 1015.67 1014.92 1013.85 1012.63 1011.43 1010.41 1009.70 1009.37 1009.41 1009.76 1010.32 1010.96 1011.57 1012.07 1012.39 1012.55 1012.58 1012.54 1012.50 1012.50 1012.59 1012.76 1013.01 1013.29 1013.57 1013.82 1014.01 1014.15 1014.24 1014.32 1014.41 1014.53
1009.60 1009.69 1009.87 1010.17 1010.64 1011.28 1012.04 1012.87 1013.66 1014.28 1014.65 1014.70 1014.40 1013.79 1012.95 1012.01 1011.10 1010.34 1009.83 1009.62 1009.69 1010.00 1010.47 1010.99 1011.49 1011.89 1012.16 1012.31 1012.36 1012.37 1012.37 1012.42 1012.53 1012.71 1012.93 1013.18 1013.42 1013.62 1013.78 1013.89 1013.96 1014.02 1014.10 1014.21
1009.20 1009.48 1009.79 1010.16 1010.59 1011.09 1011.64 1012.20 1012.70 1013.07 1013.26 1013.23 1012.97 1012.52 1011.93 1011.29 1010.68 1010.20 1009.90 1009.80 1009.91 1010.16 1010.52 1010.91 1011.27 1011.57 1011.78 1011.91 1011.99 1012.06 1012.13 1012.25 1012.41 1012.62 1012.85 1013.09 1013.30 1013.47 1013.60 1013.68 1013.74 1013.79 1013.85 1013.95
1008.95 1009.39 1009.82 1010.22 1010.59 1010.94 1011.26 1011.53 1011.73 1011.85 1011.86 1011.75 1011.54 1011.23 1010.88 1010.53 1010.22 1010.00 1009.89 1009.91 1010.03 1010.23 1010.48 1010.73 1010.96 1011.15 1011.30 1011.42 1011.53 1011.65 1011.81 1012.00 1012.23 1012.49 1012.75 1012.99 1013.19 1013.35 1013.46 1013.53 1013.58 1013.63 1013.70 1013.81
1008.89 1009.48 1009.99 1010.39 1010.69 1010.87 1010.95 1010.94 1010.87 1010.74 1010.58 1010.40 1010.21 1010.03 1009.89 1009.79 1009.74 1009.75 1009.82 1009.93 1010.07 1010.22 1010.37 1010.49 1010.60 1010.70 1010.79 1010.90 1011.05 1011.23 1011.47 1011.74 1012.04 1012.34 1012.63 1012.88 1013.09 1013.24 1013.35 1013.43 1013.50 1013.57 1013.66 1013.79
1009.07 1009.74 1010.28 1010.66 1010.86 1010.88 1010.74 1010.49 1010.16 1009.83 1009.51 1009.25 1009.08 1009.00 1009.02 1009.12 1009.28 1009.48 1009.69 1009.89 1010.05 1010.17 1010.24 1010.27 1010.30 1010.32 1010.38 1010.49 1010.66 1010.90 1011.19 1011.53 1011.87 1012.22 1012.52 1012.79 1013.00 1013.16 1013.28 1013.39 1013.49 1013.61 1013.75 1013.93
1009.44 1010.13 1010.66 1010.98 1011.07 1010.93 1010.61 1010.15 1009.63 1009.12 1008.68 1008.36 1008.20 1008.19 1008.32 1008.57 1008.89 1009.24 1009.56 1009.83 1010.02 1010.13 1010.16 1010.15 1010.13 1010.12 1010.17 1010.28 1010.47 1010.75 1011.08 1011.44 1011.81 1012.16 1012.47 1012.73 1012.94 1013.12 1013.27 1013.41 1013.56 1013.75 1013.96 1014.20
1009.93 1010.57 1011.03 1011.26 1011.24 1010.98 1010.51 1009.91 1009.25 1008.62 1008.10 1007.74 1007.58 1007.61 1007.83 1008.18 1008.60 1009.05 1009.46 1009.79 1010.03 1010.16 1010.20 1010.19 1010.16 1010.16 1010.21 1010.33 1010.54 1010.83 1011.16 1011.52 1011.88 1012.21 1012.50 1012.75 1012.95 1013.13 1013.31 1013.50 1013.72 1013.98 1014.27 1014.60
1010.41 1010.94 1011.30 1011.42 1011.30 1010.94 1010.38 1009.70 1008.97 1008.29 1007.74 1007.37 1007.21 1007.28 1007.54 1007.95 1008.44 1008.95 1009.43 1009.82 1010.11 1010.29 1010.37 1010.40 1010.40 1010.43 1010.51 1010.65 1010.86 1011.13 1011.45 1011.77 1012.09 1012.37 1012.62 1012.84 1013.03 1013.22 1013.42 1013.66 1013.95 1014.28 1014.66 1015.07
1010.78 1011.16 1011.38 1011.39 1011.19 1010.77 1010.19 1009.49 1008.77 1008.10 1007.56 1007.22 1007.09 1007.18 1007.46 1007.90 1008.43 1008.98 1009.50 1009.94 1010.28 1010.52 1010.67 1010.76 1010.83 1010.90 1011.01 1011.17 1011.37 1011.62 1011.89 1012.15 1012.40 1012.63 1012.82 1012.99 1013.17 1013.36 1013.59 1013.88 1014.23 1014.64 1015.09 1015.58
1010.94 1011.16 1011.24 1011.16 1010.90 1010.47 1009.91 1009.27 1008.62 1008.03 1007.57 1007.28 1007.19 1007.30 1007.60 1008.04 1008.57 1009.13 1009.67 1010.15 1010.55 1010.85 1011.07 1011.24 1011.37 1011.50 1011.64 1011.80 1011.99 1012.19 1012.40 1012.59 1012.77 1012.92 1013.06 1013.19 1013.35 1013.55 1013.81 1014.14 1014.55 1015.02 1015.53 1016.08
1010.88 1010.93 1010.89 1010.74 1010.46 1010.07 1009.59 1009.07 1008.55 1008.08 1007.73 1007.53 1007.50 1007.64 1007.95 1008.37 1008.88 1009.43 1009.96 1010.45 1010.88 1011.23 1011.52 1011.75 1011.95 1012.12 1012.28 1012.44 1012.60 1012.75 1012.89 1013.01 1013.11 1013.20 1013.29 1013.40 1013.55 1013.76 1014.05 1014.43 1014.88 1015.39 1015.96 1016.54
1010.60 1010.51 1010.38 1010.18 1009.93 1009.62 1009.27 1008.90 1008.55 1008.26 1008.06 1007.96 1008.00 1008.18 1008.47 1008.87 1009.34 1009.84 1010.35 1010.83 1011.27 1011.65 1011.98 1012.26 1012.49 1012.69 1012.86 1013.01 1013.13 1013.23 1013.30 1013.35 1013.39 1013.43 1013.49 1013.59 1013.75 1013.98 1014.30 1014.71 1015.20 1015.76 1016.35 1016.96
1010.17 1009.98 1009.78 1009.59 1009.39 1009.19 1008.99 1008.81 1008.66 1008.55 1008.51 1008.53 1008.65 1008.85 1009.14 1009.50 1009.91 1010.35 1010.81 1011.26 1011.68 1012.07 1012.41 1012.71 1012.96 1013.17 1013.33 1013.45 1013.53 1013.58 1013.59 1013.59 1013.59 1013.60 1013.65 1013.75 1013.93 1014.19 1014.55 1015.00 1015.52 1016.11 1016.72 1017.34
1009.68 1009.42 1009.19 1009.02 1008.89 1008.82 1008.79 1008.80 1008.84 1008.92 1009.03 1009.18 1009.38 1009.61 1009.89 1010.21 1010.56 1010.94 1011.33 1011.73 1012.11 1012.48 1012.81 1013.10 1013.35 1013.54 1013.68 1013.77 1013.81 1013.81 1013.78 1013.74 1013.71 1013.71 1013.76 1013.89 1014.10 1014.41 1014.81 1015.29 1015.84 1016.44 1017.06 1017.68
Thickness
5819 5800 5787 5793 5799 5798 5798 5794 5793 5809 5832 5825 5814 5811 5818 5824 5822 5815 5809 5807 5804 5801 5801 5799 5795 5791 5786 5781 5776 5772 5766 5762 5759 5755 5751 5748 5747 5748 5749 5750 5751 5752 5751 5752
5795 5788 5805 5811 5811 5807 5801 5793 5795 5811 5829 5823 5810 5808 5817 5822 5819 5817 5812 5807 5804 5800 5797 5795 5792 5788 5784 5779 5775 5771 5766 5763 5760 5757 5754 5751 5748 5747 5748 5748 5750 5750 5751 5751
5784 5799 5817 5812 5806 5801 5800 5796 5798 5803 5815 5815 5806 5791 5800 5813 5817 5816 5816 5812 5809 5804 5797 5794 5790 5786 5782 5778 5775 5772 5767 5763 5760 5757 5753 5750 5747 5745 5744 5745 5747 5749 5749 5750
5792 5809 5811 5805 5803 5805 5789 5811 5811 5808 5792 5778 5790 5759 5783 5796 5802 5806 5807 5807 5807 5805 5798 5792 5788 5784 5781 5779 5777 5773 5768 5763 5760 5756 5752 5748 5744 5742 5743 5745 5746 5747 5748 5748
5790 5807 5803 5799 5809 5813 5805 5819 5814 5806 5790 5774 5778 5762 5768 5789 5789 5796 5804 5808 5807 5804 5798 5792 5789 5786 5783 5780 5776 5772 5767 5763 5760 5757 5754 5749 5746 5745 5745 5745 5744 5745 5746 5747
5797 5814 5812 5812 5822 5823 5821 5811 5797 5782 5767 5751 5767 5761 5760 5778 5790 5798 5805 5808 5805 5802 5797 5792 5789 5786 5782 5780 5775 5771 5767 5763 5760 5757 5753 5750 5746 5745 5743 5743 5742 5742 5743 5744
5782 5799 5815 5821 5808 5813 5808 5772 5744 5742 5732 5739 5764 5762 5764 5795 5806 5807 5807 5806 5804 5801 5796 5791 5786 5783 5779 5776 5773 5769 5766 5762 5759 5756 5753 5751 5748 5746 5745 5743 5742 5741 5741 5742
5758 5766 5801 5814 5806 5794 5795 5772 5739 5728 5725 5736 5758 5756 5776 5805 5813 5813 5810 5805 5800 5796 5793 5790 5787 5783 5780 5776 5772 5769 5765 5762 5759 5756 5753 5751 5749 5747 5746 5745 5744 5743 5743 5744
5756 5764 5805 5818 5821 5808 5790 5776 5771 5746 5740 5732 5742 5762 5783 5804 5804 5803 5801 5798 5793 5791 5789 5786 5785 5782 5779 5775 5772 5769 5765 5762 5759 5756 5753 5751 5749 5748 5746 5746 5745 5744 5744 5744
5771 5763 5789 5811 5819 5814 5805 5791 5759 5742 5726 5719 5737 5750 5757 5780 5788 5793 5793 5789 5789 5789 5786 5784 5782 5781 5778 5775 5772 5769 5766 5762 5760 5757 5754 5752 5749 5748 5747 5745 5744 5744 5744 5743
5778 5760 5771 5787 5792 5790 5793 5786 5766 5743 5736 5721 5720 5740 5784 5786 5790 5790 5791 5792 5791 5788 5785 5783 5779 5779 5777 5773 5769 5766 5763 5760 5757 5755 5753 5751 5749 5748 5746 5745 5744 5743 5743 5742
5779 5759 5750 5770 5798 5809 5798 5788 5767 5745 5740 5732 5725 5743 5797 5796 5797 5795 5793 5793 5792 5788 5786 5782 5778 5775 5772 5769 5766 5763 5761 5758 5756 5754 5752 5750 5748 5746 5744 5743 5742 5742 5741 5741
5778 5753 5738 5747 5766 5789 5790 5788 5778 5762 5745 5732 5726 5748 5793 5794 5794 5795 5793 5792 5790 5786 5784 5780 5775 5772 5768 5766 5763 5761 5759 5757 5755 5753 5750 5748 5746 5744 5742 5740 5740 5740 5739 5737
5788 5754 5745 5739 5750 5773 5779 5785 5782 5761 5740 5737 5744 5757 5776 5783 5786 5788 5790 5790 5788 5783 5780 5776 5772 5769 5766 5764 5762 5760 5757 5756 5753 5750 5747 5745 5743 5741 5739 5738 5737 5736 5735 5733
5776 5755 5760 5764 5775 5782 5781 5781 5783 5771 5761 5752 5759 5764 5775 5784 5787 5788 5789 5788 5785 5780 5776 5774 5769 5766 5764 5761 5759 5758 5756 5754 5751 5747 5744 5742 5740 5738 5736 5734 5733 5732 5730 5729
5760 5754 5758 5759 5772 5774 5772 5778 5780 5780 5779 5773 5771 5769 5788 5791 5789 5785 5785 5785 5781 5778 5776 5774 5769 5765 5762 5759 5757 5755 5753 5751 5748 5744 5741 5739 5736 5734 5731 5729 5727 5726 5724 5722
5743 5742 5734 5733 5753 5757 5748 5769 5774 5775 5782 5779 5767 5775 5785 5780 5782 5782 5783 5782 5779 5777 5775 5772 5768 5764 5761 5759 5756 5752 5750 5748 5744 5740 5737 5735 5732 5728 5726 5724 5721 5719 5717 5715
5735 5728 5718 5721 5734 5720 5745 5778 5781 5775 5777 5783 5782 5783 5785 5783 5781 5784 5786 5781 5777 5775 5772 5769 5766 5762 5759 5756 5753 5750 5747 5743 5740 5735 5732 5730 5727 5723 5720 5717 5714 5712 5710 5708
5736 5724 5711 5704 5706 5719 5749 5771 5775 5766 5759 5775 5776 5777 5777 5779 5775 5770 5778 5780 5777 5773 5770 5766 5762 5759 5755 5751 5749 5745 5740 5737 5734 5730 5727 5724 5722 5718 5714 5710 5707 5705 5703 5701
5726 5721 5707 5699 5700 5701 5735 5768 5779 5764 5741 5766 5771 5771 5771 5771 5753 5754 5768 5772 5771 5768 5765 5761 5757 5752 5747 5744 5742 5737 5732 5729 5727 5725 5722 5719 5716 5712 5708 5705 5702 5698 5696 5693
5702 5700 5695 5692 5694 5708 5743 5764 5767 5732 5732 5760 5765 5766 5766 5761 5760 5761 5764 5763 5762 5759 5754 5751 5747 5741 5738 5736 5733 5728 5725 5722 5721 5719 5716 5712 5709 5705 5702 5698 5695 5691 5688 5684
5687 5683 5684 5683 5683 5696 5741 5748 5738 5735 5750 5755 5757 5758 5757 5756 5756 5755 5755 5753 5751 5748 5744 5741 5736 5730 5728 5727 5724 5720 5717 5716 5714 5711 5707 5704 5700 5697 5694 5690 5686 5682 5679 5675
5682 5685 5686 5689 5692 5712 5730 5734 5739 5743 5743 5746 5748 5750 5750 5746 5744 5744 5742 5741 5739 5738 5734 5730 5726 5720 5717 5716 5715 5711 5709 5708 5705 5701 5698 5694 5691 5688 5684 5681 5677 5673 5669 5666
5678 5689 5686 5685 5693 5706 5717 5726 5730 5734 5735 5739 5741 5741 5741 5737 5734 5732 5731 5729 5727 5725 5722 5718 5715 5710 5706 5705 5704 5702 5701 5699 5696 5691 5688 5685 5682 5678 5675 5672 5668 5665 5661 5657
5671 5676 5674 5675 5685 5695 5703 5710 5717 5722 5726 5727 5727 5729 5728 5726 5723 5721 5718 5716 5715 5713 5709 5707 5702 5699 5697 5695 5694 5692 5690 5689 5685 5682 5678 5675 5672 5669 5664 5660 5656 5654 5652 5651
5662 5664 5663 5665 5678 5682 5688 5700 5708 5709 5710 5712 5713 5712 5713 5714 5711 5709 5706 5703 5702 5699 5697 5694 5691 5688 5686 5685 5683 5681 5680 5678 5675 5671 5669 5666 5662 5659 5654 5649 5643 5639 5639 5638